Regional Weather Roundup
Issued by NWS

Home | Current Version | Previous Version | Graphics & Text | Print | Product List | Glossary On
Versions: 1 2 3 4 5 6 7 8 9 10 11 12 13 14 15 16 17 18 19 20 21 22 23 24 25 26 27 28 29 30 31 32 33 34 35 36 37 38 39 40 41 42 43 44 45 46 47 48 49 50
513
ASUS44 KJAN 180003
RWRMS

MISSISSIPPI HOURLY WEATHER ROUNDUP
NATIONAL WEATHER SERVICE JACKSON MS
600 PM CST WED DEC 17 2014

NOTE: "FAIR: INDICATES FEW OR NO CLOUDS BELOW 12,000 FEET WITH NO
SIGNIFICANT WEATHER AND/OR OBSTRUCTIONS TO VISIBILITY.

MSZ001>002-007>008-010>013-018>021-025>028-034>036-180100-
NORTHWEST MISSISSIPPI

CITY           SKY/WX    TMP DP  RH WIND       PRES   REMARKS
CLARKSDALE     CLOUDY    41  36  81 N10       30.25F
CLEVELAND      MOCLDY    43  38  84 NE8       30.23F
GREENWOOD      CLOUDY    43  36  76 NE5       30.22F
6HR MIN TEMP:  43; 6HR MAX TEMP:  51;

GREENVILLE     CLOUDY    45  37  73 NE10      30.22F
6HR MIN TEMP:  44; 6HR MAX TEMP:  48;

GRENADA        FAIR      41  37  87 CALM      30.24F
OXFORD         FAIR      39  34  81 NE3       30.26F
TUNICA         CLOUDY    39  34  81 N8        30.27F WCI  34
$$

MSZ003>006-009-014>017-022>024-029>033-037>039-180100-
NORTHEAST MISSISSIPPI

CITY           SKY/WX    TMP DP  RH WIND       PRES   REMARKS
COLUMBUS AFB   NOT AVBL
CORINTH        FAIR      41  34  75 CALM      30.25S
STARKVILLE     FAIR      45  37  76 CALM      30.24R
TUPELO         CLOUDY    43  35  73 N8        30.25R
6HR MIN TEMP:  43; 6HR MAX TEMP:  49;

$$

MSZ040-058-180100-
CENTRAL MISSISSIPPI

CITY           SKY/WX    TMP DP  RH WIND       PRES   REMARKS
JACKSON INTL   MOCLDY    47  40  76 NE7       30.20F
6HR MIN TEMP:  47; 6HR MAX TEMP:  58;

JACKSON HAWKNS PTCLDY    50  39  66 NE5       30.19F
6HR MIN TEMP:  50; 6HR MAX TEMP:  57;

MERIDIAN KEY   PTCLDY    45  39  79 CALM      30.21R
6HR MIN TEMP:  44; 6HR MAX TEMP:  59;

MERIDIAN NAS   PTCLDY    49  38  65 N3        30.22R
6HR MIN TEMP:  49; 6HR MAX TEMP:  57;

RAYMOND        FAIR      50  46  87 MISG      30.19F
VICKSBURG      MOCLDY    50  39  66 N8        30.21R
6HR MIN TEMP:  49; 6HR MAX TEMP:  55;

$$

MSZ059>079-180100-
SOUTH MISSISSIPPI

CITY           SKY/WX    TMP DP  RH WIND       PRES   REMARKS
HATTIESBURG    CLEAR     47  41  80 CALM      30.21R
6HR MIN TEMP:  47; 6HR MAX TEMP:  59;

MCCOMB         CLEAR     49  41  74 CALM      30.19R
6HR MIN TEMP:  49; 6HR MAX TEMP:  59;

NATCHEZ        PTCLDY    50  37  62 N3        30.19S
6HR MIN TEMP:  50; 6HR MAX TEMP:  57;

PINE BELT      CLEAR     45  37  76 CALM      30.22R
6HR MIN TEMP:  45; 6HR MAX TEMP:  57;

$$

MSZ080>082-180100-
COASTAL MISSISSIPPI

CITY           SKY/WX    TMP DP  RH WIND       PRES   REMARKS
BAY ST LOUIS   CLEAR     48  41  76 CALM      30.19F
BILOXI         CLEAR     52  42  69 NW1       30.19S
6HR MIN TEMP:  52; 6HR MAX TEMP:  60;

PASCAGOULA     CLEAR     43  39  86 CALM      30.20S
6HR MIN TEMP:  42; 6HR MAX TEMP:  61;

GULFPORT       PTCLDY    48  41  76 CALM      30.19S
6HR MIN TEMP:  48; 6HR MAX TEMP:  60;

$$



USA.gov is the U.S. government's official web portal to all federal, state and local government web resources and services.